Location: Korczew
(51.3586°N, 19.4491°E)
Time: 06:42:29
(UTC+00:00)

Cosmos 1821 Rocket - Pass Details

Date: 19 May 2025
Orbit: 943 x 1004 km, 82.9° (Epoch: 16 June)

Event Time Altitude Azimuth Distance (km) Brightness Sun altitude
Rises 20:27:17 0° 350° (N) 3,645 8.4 -13.1°
Reaches altitude 10° 20:29:48 10° 352° (N) 2,689 7.5 -13.3°
Maximum altitude 20:35:57 80° 79° (E) 965 3.9 -13.8°
Enters shadow 20:40:29 19° 166° (SSE) 2,088 5.1 -14.1°
